FENGYUN 1C DEB, 31018

Orbit data source: Space-Track

FENGYUN 1C DEB, 31018 is space debris in SSO originally from a launch on Mon, 10 May 1999 UTC launched from the Taiyaun Space Center, China (TSC). Fengyun 1C debris stems from the Chinese weather satellite Fengyun-1C, which was intentionally destroyed by a Chinese anti-satellite missile in 2007. This event dramatically increased the amount of space debris, with thousands of trackable fragments posing hazards to satellites and human spaceflight. The Fengyun 1C debris cloud has become a focal point in discussions about space sustainability and the need for international regulations to prevent the creation of new debris.

Loading next visibility...
Identifier
31018, 1999-025BDL
Orbit
SSO
Country
Flag of CNCN / PRC
Related business
Manufacturer
Unknown
Mission
Spacecraft
Bus & Motor
Unknown
Mass
Unknown
Launch date (UTC)
1999-05-10 (27 years ago)
Launch vehicle
Unknown
Launch site
Taiyaun Space Center, China (TSC)
Object type
Payload
Rocket body
Debris
Shape & HBR
Unknown shape, 0.1 m
Radar Cross Section
Small (<0.1 m²)

Expand to show TLE details & history
Last TLE update: 1 day ago

TLE from 1 day ago
0 FENGYUN 1C DEB
1 31018U 99025BDL 26207.23877620  .00003210  00000-0  15547-2 0  9990
2 31018  99.0212 302.4592 0058319 201.3529 158.5211 14.18288496992500
Epoch: 2026-07-26T05:43Z
TLE epoch observation values (Epoch: 2026-07-26T05:43:50.263Z)
Latitude
-0.00006°
Longitude
-87.43979°
Altitude
873.213 km
Speed
7.396 km/s
True Right ascension
20h 09m 50s
True Declination
0° 00' 00"
Sunlit
Object was in full shadow at epoch
Visualization orbit readout
Latitude
Unknown
Longitude
Unknown
Altitude
Unknown
Speed
Unknown
Apparent Right ascension
Unknown
Apparent Declination
Unknown
Sunlit
N/A
Visualization observer readout
Local Sidereal Time
22:27:20
Azimuth
Unknown
Elevation
Unknown
Doppler factor
Unknown
Orbital elements
Apogee altitude
870.35 km
Perigee altitude
786.295 km
Semi-major axis
7,206.46 km
Eccentricity
0.00583
Inclination
99.0212°
RAAN
302.4592°
Arg. of periapsis
201.3529°
True anomaly
158.76415°
Mean anomaly
158.5211°
Eccentric anomaly
158.64279°
Mean motion
3.54781 °/min
Orbital period
101.47 mins
BSTAR
0.0015547
Loading maneuver chart data...
Computing Atmospheric mass density...

Documentation

Showing up to 5 results
|